Weather History for Muncie, IN

Change the Weather History Date:

Thursday, January 31, 2013

  Actual Average Record
Temperature  
Mean Temperature 21 °F 27 °F  
Max Temperature 30 °F 35 °F 59 °F (2012)
Min Temperature 12 °F 19 °F -8 °F (1963)
Degree Days  
Heating Degree Days 44 38  
Month to date heating degree days 986 1197  
Since 1 July heating degree days 3077 3393  
Cooling Degree Days 0 0  
Month to date cooling degree days 0 0  
Year to date cooling degree days 0 0  
Moisture  
Dew Point 13 °F    
Average Humidity 66    
Maximum Humidity 74    
Minimum Humidity 57    
Precipitation  
Precipitation T in 0.08 in 1.18 in (2002)
Month to date precipitation 4.15 2.23  
Year to date precipitation 4.15 2.23  
Sea Level Pressure  
Sea Level Pressure 29.82 in    
Wind  
Wind Speed 20 mph (West)    
Max Wind Speed 33 mph    
Max Gust Speed 46 mph    
Visibility 6 miles    
Events Snow    
T = Trace of Precipitation, MM = Missing Value Source: NWS Daily Summary

Daily Weather History Graph

Daily Weather History Graph

Search for Another Location

Airport:

Trip Planner

Search our weather history database for the weather conditions in past years. The results will help you decide how hot, cold, wet, or windy it might be!

Date:

Astronomy

Jan. 31, 2013 Rise Set
Actual Time 7:51 AM EST 5:59 PM EST
Civil Twilight 7:22 AM EST 6:28 PM EST
Nautical Twilight 6:49 AM EST 7:00 PM EST
Astronomical Twilight 6:18 AM EST 7:32 PM EST
Moon 11:01 PM EST (1/31) 9:49 AM EST (1/31)
Length of Visible Light 11h 05m
Length of Day
10h 08m
Waning Gibbous, 80% of the Moon is Illuminated
Jan 31
Waning Gibbous
Feb 3
Last Quarter
Feb 10
New
Feb 17
First Quarter
Feb 25
Full

Hourly Weather History & Observations

Time (EST) Temp. Windchill Dew Point Humidity Pressure Visibility Wind Dir Wind Speed Gust Speed Precip Events Conditions
12:02 AM 30.2 °F 16.2 °F 21.2 °F 69% 29.54 in 4.0 mi West 25.3 mph 46.0 mph 0.00 in Snow Light Snow
12:17 AM 28.4 °F 12.0 °F 21.2 °F 74% 29.56 in 7.0 mi West 33.4 mph 40.3 mph 0.00 in Snow Light Snow
12:53 AM 28.0 °F 12.8 °F 19.9 °F 72% 29.58 in 5.0 mi West 27.6 mph 39.1 mph 0.00 in Snow Light Snow
1:27 AM 26.6 °F 12.7 °F 19.4 °F 74% 29.60 in 6.0 mi West 20.7 mph 35.7 mph 0.00 in Snow Light Snow
1:53 AM 26.1 °F 10.7 °F 18.0 °F 71% 29.62 in 4.0 mi WNW 25.3 mph 40.3 mph 0.00 in Snow Light Snow
2:10 AM 26.6 °F 10.8 °F 17.6 °F 69% 29.63 in 2.5 mi West 27.6 mph 36.8 mph 0.00 in Snow Light Snow
2:42 AM 24.8 °F 7.9 °F 15.8 °F 69% 29.66 in 5.0 mi West 29.9 mph 42.6 mph 0.00 in Snow Light Snow
2:53 AM 25.0 °F 8.4 °F 15.1 °F 66% 29.67 in 7.0 mi West 28.8 mph 40.3 mph 0.00 in Snow Light Snow
3:29 AM 24.8 °F 9.3 °F 14.0 °F 64% 29.68 in 9.0 mi WNW 24.2 mph 32.2 mph 0.00 in   Overcast
3:53 AM 25.0 °F 10.6 °F 14.0 °F 63% 29.68 in 9.0 mi West 20.7 mph 29.9 mph 0.00 in Snow Light Snow
4:19 AM 24.8 °F 10.0 °F 15.8 °F 69% 29.69 in 3.0 mi West 21.9 mph 33.4 mph 0.00 in Snow Light Snow
4:26 AM 24.8 °F 10.0 °F 15.8 °F 69% 29.69 in 2.5 mi West 21.9 mph 31.1 mph 0.00 in Snow Light Snow
4:46 AM 24.8 °F 8.1 °F 14.0 °F 64% 29.69 in 8.0 mi West 28.8 mph 35.7 mph 0.00 in Snow Light Snow
4:53 AM 25.0 °F 8.9 °F 12.9 °F 60% 29.71 in 9.0 mi West 26.5 mph 35.7 mph 0.00 in Snow Light Snow
5:29 AM 24.8 °F 10.7 °F 15.8 °F 69% 29.71 in 4.0 mi West 19.6 mph 31.1 mph 0.00 in Snow Light Snow
5:38 AM 24.8 °F 9.6 °F 15.8 °F 69% 29.71 in 2.0 mi West 23.0 mph 32.2 mph 0.00 in Snow Light Snow
5:50 AM 23.0 °F 7.6 °F 12.2 °F 63% 29.71 in 5.0 mi West 21.9 mph 33.4 mph 0.00 in Snow Light Snow
5:53 AM 23.0 °F 6.6 °F 12.9 °F 65% 29.73 in 6.0 mi West 25.3 mph 33.4 mph 0.00 in Snow Light Snow
6:19 AM 21.2 °F 4.9 °F 12.2 °F 68% 29.74 in 3.0 mi West 23.0 mph 35.7 mph 0.00 in Snow Light Snow
6:32 AM 21.2 °F 6.0 °F 12.2 °F 68% 29.75 in 2.5 mi West 19.6 mph 34.5 mph 0.00 in Snow Light Snow
6:37 AM 21.2 °F 5.6 °F 10.4 °F 63% 29.75 in 3.0 mi West 20.7 mph 36.8 mph 0.00 in Snow Light Snow
6:53 AM 21.0 °F 5.0 °F 10.0 °F 63% 29.78 in 9.0 mi West 21.9 mph 34.5 mph 0.00 in Snow Light Snow
7:24 AM 21.2 °F 6.4 °F 12.2 °F 68% 29.77 in 7.0 mi West 18.4 mph 33.4 mph 0.00 in Snow Light Snow
7:37 AM 21.2 °F 5.6 °F 14.0 °F 74% 29.78 in 1.8 mi West 20.7 mph 33.4 mph 0.00 in Snow Light Snow
7:45 AM 21.2 °F 3.5 °F 12.2 °F 68% 29.78 in 3.0 mi West 27.6 mph 36.8 mph 0.00 in Snow Light Snow
7:53 AM 21.0 °F 4.6 °F 9.0 °F 60% 29.81 in 9.0 mi West 23.0 mph 36.8 mph 0.00 in   Overcast
8:04 AM 21.2 °F 6.4 °F 10.4 °F 63% 29.79 in 10.0 mi West 18.4 mph 33.4 mph N/A   Overcast
8:14 AM 21.2 °F 7.8 °F 10.4 °F 63% 29.80 in 10.0 mi West 15.0 mph 26.5 mph N/A   Overcast
8:53 AM 21.9 °F 10.4 °F 12.9 °F 68% 29.83 in 10.0 mi West 11.5 mph 21.9 mph N/A   Overcast
9:13 AM 21.2 °F 8.3 °F 12.2 °F 68% 29.81 in 5.0 mi West 13.8 mph 25.3 mph 0.00 in Snow Light Snow
9:38 AM 23.0 °F 10.1 °F 12.2 °F 63% 29.82 in 9.0 mi West 15.0 mph 28.8 mph 0.00 in   Overcast
9:53 AM 23.0 °F 10.1 °F 14.0 °F 68% 29.84 in 5.0 mi West 15.0 mph 31.1 mph 0.00 in Snow Light Snow
10:05 AM 23.0 °F 9.2 °F 14.0 °F 68% 29.83 in 1.8 mi WSW 17.3 mph 27.6 mph 0.00 in Snow Light Snow
10:53 AM 24.1 °F 11.0 °F 17.1 °F 75% 29.86 in 2.5 mi West 16.1 mph 23.0 mph 0.00 in Snow Light Snow
11:01 AM 24.8 °F 10.3 °F 15.8 °F 69% 29.84 in 3.0 mi West 20.7 mph 27.6 mph 0.00 in Snow Light Snow
11:07 AM 24.8 °F 12.4 °F 15.8 °F 69% 29.84 in 1.8 mi West 15.0 mph 27.6 mph 0.00 in Snow Light Snow
11:17 AM 24.8 °F 12.4 °F 17.6 °F 74% 29.85 in 0.5 mi WSW 15.0 mph 23.0 mph 0.00 in Snow Snow
11:26 AM 24.8 °F 12.9 °F 17.6 °F 74% 29.85 in 0.2 mi West 13.8 mph 23.0 mph 0.00 in Snow Heavy Snow
11:34 AM 23.0 °F 10.6 °F 17.6 °F 80% 29.85 in 0.5 mi West 13.8 mph 20.7 mph 0.00 in Snow Snow
11:44 AM 23.0 °F 11.7 °F 17.6 °F 80% 29.85 in 0.2 mi West 11.5 mph 19.6 mph 0.00 in Snow Heavy Snow
11:51 AM 24.8 °F 14.0 °F 17.6 °F 74% 29.85 in 0.8 mi West 11.5 mph 19.6 mph 0.00 in Snow Light Snow
11:53 AM 24.1 °F 12.0 °F 18.0 °F 77% 29.88 in 1.2 mi WSW 13.8 mph - 0.00 in Snow Light Snow
11:56 AM 24.8 °F 11.9 °F 17.6 °F 74% 29.85 in 3.0 mi West 16.1 mph 20.7 mph 0.00 in Snow Light Snow
12:07 PM 24.8 °F 13.4 °F 17.6 °F 74% 29.85 in 10.0 mi West 12.7 mph 19.6 mph 0.00 in   Overcast
12:48 PM 26.6 °F 10.6 °F 14.0 °F 59% 29.84 in 1.8 mi West 28.8 mph 38.0 mph 0.00 in Snow Light Snow
12:53 PM 26.1 °F 11.6 °F 14.0 °F 60% 29.87 in 1.5 mi West 21.9 mph 38.0 mph 0.00 in Snow Light Snow
12:59 PM 26.6 °F 12.7 °F 14.0 °F 59% 29.84 in 3.0 mi West 20.7 mph 35.7 mph 0.00 in Snow Light Snow
1:25 PM 26.6 °F 13.8 °F 15.8 °F 64% 29.85 in 2.0 mi West 17.3 mph 32.2 mph 0.00 in Snow Light Snow
1:28 PM 26.6 °F 14.3 °F 17.6 °F 69% 29.85 in 1.5 mi West 16.1 mph 28.8 mph 0.00 in Snow Light Snow
1:34 PM 26.6 °F 12.7 °F 15.8 °F 64% 29.84 in 2.0 mi West 20.7 mph 32.2 mph 0.00 in Snow Light Snow
1:42 PM 26.6 °F 13.4 °F 15.8 °F 64% 29.85 in 6.0 mi West 18.4 mph 26.5 mph 0.00 in Snow Light Snow
1:53 PM 26.1 °F 11.0 °F 15.1 °F 63% 29.87 in 9.0 mi West 24.2 mph 34.5 mph 0.00 in   Overcast
2:53 PM 27.0 °F 12.8 °F 14.0 °F 58% 29.87 in 9.0 mi West 21.9 mph 35.7 mph 0.00 in Snow Light Snow
3:17 PM 26.6 °F 11.4 °F 14.0 °F 59% 29.85 in 9.0 mi West 25.3 mph 35.7 mph 0.00 in Snow Light Snow
3:53 PM 26.1 °F 12.7 °F 14.0 °F 60% 29.88 in 9.0 mi West 18.4 mph 33.4 mph 0.00 in Snow Light Snow
4:15 PM 26.6 °F 12.0 °F 14.0 °F 59% 29.86 in 10.0 mi West 23.0 mph 32.2 mph 0.00 in   Overcast
4:22 PM 26.6 °F 12.0 °F 14.0 °F 59% 29.85 in 10.0 mi West 23.0 mph 32.2 mph 0.00 in   Overcast
4:53 PM 25.0 °F 11.7 °F 12.9 °F 60% 29.88 in 10.0 mi West 17.3 mph 27.6 mph 0.00 in   Overcast
5:09 PM 24.8 °F 11.9 °F 12.2 °F 59% 29.86 in 10.0 mi West 16.1 mph 25.3 mph N/A   Overcast
5:16 PM 24.8 °F 11.5 °F 12.2 °F 59% 29.86 in 10.0 mi West 17.3 mph 26.5 mph N/A   Overcast
5:53 PM 24.1 °F 11.5 °F 12.9 °F 62% 29.90 in 10.0 mi WNW 15.0 mph - N/A   Overcast
6:53 PM 23.0 °F 8.7 °F 12.0 °F 63% 29.93 in 10.0 mi WNW 18.4 mph 31.1 mph N/A   Overcast
7:12 PM 21.2 °F 5.6 °F 12.2 °F 68% 29.92 in 9.0 mi NW 20.7 mph 29.9 mph N/A   Overcast
7:53 PM 19.0 °F 3.6 °F 8.1 °F 62% 29.98 in 8.0 mi WNW 18.4 mph 31.1 mph 0.00 in Snow Light Snow
8:37 PM 17.6 °F 1.7 °F 6.8 °F 63% 29.94 in 10.0 mi NW 18.4 mph 28.8 mph 0.00 in   Overcast
8:53 PM 17.1 °F 1.5 °F 6.1 °F 62% 29.98 in 8.0 mi WNW 17.3 mph 32.2 mph 0.00 in Snow Light Snow
9:06 PM 17.6 °F -0.3 °F 6.8 °F 63% 29.95 in 9.0 mi WNW 24.2 mph 31.1 mph 0.00 in   Overcast
9:53 PM 16.0 °F -1.7 °F 5.0 °F 62% 30.01 in 7.0 mi WNW 21.9 mph 31.1 mph 0.00 in Snow Light Snow
10:30 PM 14.0 °F -4.3 °F 5.0 °F 67% 30.00 in 1.8 mi WNW 21.9 mph 33.4 mph 0.00 in Snow Light Snow
10:41 PM 14.0 °F -3.0 °F 3.2 °F 62% 30.01 in 3.0 mi WNW 18.4 mph 27.6 mph 0.00 in Snow Light Snow
10:53 PM 12.9 °F -2.8 °F 3.0 °F 65% 30.05 in 10.0 mi WNW 15.0 mph 24.2 mph 0.00 in   Mostly Cloudy
11:24 PM 12.2 °F -7.5 °F 1.4 °F 62% 30.03 in 7.0 mi WNW 24.2 mph 33.4 mph 0.00 in Snow Light Snow
11:53 PM 12.0 °F -6.5 °F -0.0 °F 59% 30.09 in 10.0 mi WNW 20.7 mph 29.9 mph 0.00 in   Partly Cloudy